Content
SEND FEEDBACK

Daily
Averages
Monthly
Summary
Mexico

LEONA VICARIO, QUINTANA ROO


Home > North America > Mexico > Quintana Roo
Elevation: 26 feet     Latitude: 20 59N     Longitude: 087 12W

WEATHER
 
SELECT A DAY
Number of Records: 167,736;   Date Range: 1/1/95 - 12/17/14
 
SHARE

PRINT THIS DATA

[ ← Previous Day ]
WEATHER ALMANAC - FEBRUARY 21, 2013
[ Next Day → ]
[ °C ]   °F
Weather ElementAverageHighLow
Temperature79.3 °F84.2 °F (10:51 am)75.2 °F (1:44 am)
Dewpoint71.4 °F71.6 °F (1:44 am)69.8 °F (1:40 pm)
Humidity77.2 %89 % (1:44 am)66 % (10:51 am)
Barometer29.94 in30.00 in (9:46 am)29.90 in (3:43 pm)
Wind Speed11.1 mph18.4 mph (2:43 pm)
Weather ElementAverage
Visibility6.9 mi
Wind DirectionESE (128.3 °)

Weather ElementTotal
Precipitation---
Cooling Degree Days14.7 (Base 65)
Growing Degree Days29.7 (Base 50)
Averaged from 23 records on February 21, 2013
WEATHER CONDITIONS BREAKOUT
WIND DIRECTION BREAKOUT
WEATHER BY HOUR - FEBRUARY 21, 2013
[ °C ]   °F
Local TimeTemperatureDewpointHumidityBarometerVisibilityWind DirectionWind SpeedGust SpeedPrecipitationEventsConditions
1:44 AM75.2 °F71.6 °F89 %29.92 in7.0 miSE (130°)6.9 mphPartly Cloudy
2:46 AM75.2 °F71.6 °F89 %29.91 in7.0 miSE (130°)9.2 mphScattered Clouds
3:45 AM75.2 °F71.6 °F89 %29.91 in7.0 miESE (120°)5.8 mphScattered Clouds
4:44 AM75.2 °F71.6 °F89 %29.91 in7.0 miESE (120°)5.8 mphScattered Clouds
5:43 AM77.0 °F71.6 °F83 %29.93 in7.0 miESE (120°)8.1 mphScattered Clouds
6:42 AM77.0 °F71.6 °F83 %29.94 in7.0 miESE (120°)8.1 mphScattered Clouds
7:47 AM80.6 °F71.6 °F74 %29.96 in7.0 miSE (130°)17.3 mphScattered Clouds
8:40 AM82.4 °F71.6 °F70 %29.98 in7.0 miSE (130°)16.1 mphScattered Clouds
9:46 AM82.4 °F71.6 °F70 %30.00 in7.0 miSE (130°)12.7 mphScattered Clouds
10:51 AM84.2 °F71.6 °F66 %29.99 in7.0 miEast (90°)13.8 mphMostly Cloudy
11:45 AM84.2 °F71.6 °F66 %29.97 in6.0 miSE (130°)3.5 mphMostly Cloudy
12:40 PM82.4 °F71.6 °F70 %29.95 in6.0 miESE (120°)12.7 mphMostly Cloudy
1:40 PM82.4 °F69.8 °F66 %29.92 in6.0 miSE (140°)5.8 mphMostly Cloudy
2:43 PM82.4 °F69.8 °F66 %29.92 in7.0 miSE (130°)18.4 mphScattered Clouds
3:43 PM82.4 °F71.6 °F70 %29.90 in7.0 miSSE (150°)15.0 mphMostly Cloudy
4:42 PM80.6 °F71.6 °F74 %29.90 in7.0 miSE (130°)15.0 mphMostly Cloudy
5:40 PM78.8 °F71.6 °F78 %29.92 in7.0 miSE (140°)15.0 mphScattered Clouds
6:41 PM77.0 °F71.6 °F83 %29.93 in7.0 miSE (130°)9.2 mphMostly Cloudy
7:43 PM78.8 °F71.6 °F78 %29.94 in7.0 miESE (120°)11.5 mphMostly Cloudy
8:40 PM78.8 °F71.6 °F78 %29.95 in7.0 miSE (140°)13.8 mphMostly Cloudy
9:45 PM78.8 °F71.6 °F78 %29.96 in7.0 miSE (140°)12.7 mphScattered Clouds
10:45 PM77.0 °F71.6 °F83 %29.96 in7.0 miESE (120°)8.1 mphScattered Clouds
11:46 PM77.0 °F71.6 °F83 %29.96 in7.0 miSE (140°)10.4 mphScattered Clouds
Hourly data recorded from MMUN, located miles away from Leona Vicario, Quintana Roo







STORIES FROM OUR PARTNERS